Погода в Хургаде

Египет     27°14′03″N   33°50′03″E
темп.,
°C
ветер,
м/с
пор.,
м/с
влажн.,
%
обл.,
%
осадки,
мм/ч
давл.,
гПа
погр.,
м
10 августа, ср
ср1023:00+33сз1118235 0.0 1004459
02:00+32сз916255 0.0 1003409
05:00+30сз1219390 0.0 1004425
08:00+34сз1113290 0.0 1004729
11:00+38ссз1010230 0.0 10041225
14:00+38с1211265 0.0 1002747
17:00+35с1114290 0.0 1001592
20:00+34сз814260 0.0 1002278
11 августа, чт
чт1123:00+34сз914250 0.0 1003298
02:00+32сз813320 0.0 1003277
05:00+30сз713385 0.0 1004299
08:00+34сз912300 0.0 1005845
11:00+37с99240 0.0 10041340
14:00+38с1111230 0.0 1002867
17:00+36ссз1012250 0.0 1002573
20:00+33сз712270 0.0 1003197
12 августа, пт
пт1223:00+33сз713240 0.0 1003179
02:00+32сз611210 0.0 1003140
05:00+30сз714350 0.0 1004247
08:00+34ссз810260 0.0 1005682
11:00+38с88265 0.0 1004988
14:00+37с1111300 0.0 1002456
17:00+36ссз1113270 0.0 1002457
20:00+33сз611255 0.0 1004168
13 августа, сб
сб1323:00+33сз713230 0.0 1004212
02:00+31сз612281 0.0 1004169
05:00+29ссз714410 0.0 1004272
08:00+34ссз1013290 0.0 1005731
11:00+38ссз1010220 0.0 10041372
14:00+37с1212240 0.0 1002701
17:00+36ссз912245 0.0 1002718
20:00+34сз814200 0.0 1003229
14 августа, вс
вс1423:00+33сз1016280 0.0 1003349
02:00+30сз915370 0.0 1003375
05:00+28сз814370 0.0 1004351
08:00+33сз1012291 0.0 1005758
11:00+37с10102510 0.0 10041172
14:00+36с1112295 0.0 1002636
17:00+34с912385 0.0 1002393
20:00+33сз56270 0.0 100369